Regional Weather Roundup
Issued by NWS Goodland, KS

Home | Current Version | Previous Version | Text Only | Print | Product List | Glossary Off
Versions: 1 2 3 4 5 6 7 8 9 10 11 12 13 14 15 16 17 18 19 20 21 22 23 24 25 26 27 28 29 30 31 32 33 34 35 36 37 38 39 40 41 42 43 44 45 46 47 48 49 50

000
ASUS43 KGLD 300808
RWRGLD

GOODLAND FORECAST AREA HOURLY WEATHER ROUNDUP
NATIONAL WEATHER SERVICE GOODLAND KS
200 AM MDT TUE AUG 30 2016

...OFFICIAL OBSERVATIONS...

CITY           SKY/WX    TMP DP  RH WIND       PRES   REMARKS
GOODLAND KS    MOCLDY    60  58  92 S3        30.26F
HILL CITY KS   CLOUDY    67  65  93 CALM      30.21F
IMPERIAL NEB   CLOUDY    65  62  90 S3        30.25S
MCCOOK NEB     CLOUDY    68  66  93 CALM      30.22F
AKRON CO       PTCLDY    60  52  74 SW3       30.30F
BURLINGTON CO  FOG       58  56  93 W3        30.29F VSB 1/4
LIMON CO       CLOUDY    54  50  86 NW3       30.35S
$$

...UNOFFICIAL OBSERVATIONS...

CITY           SKY/WX    TMP DP  RH WIND       PRES   REMARKS
COLBY KS       MOCLDY    64  64 100 CALM      30.26S
LENORA KS        N/A     66  32  28 MISG        N/A
NORTON KS      MOCLDY    66  64  94 CALM      30.20F FOG
SHARON SPRINGS   N/A     64  62  94 CALM        N/A
TRENTON NEB      N/A     66  32  28 MISG        N/A
KIT CARSON CO    N/A     57  53  85 CALM        N/A
YUMA CO          N/A     58  54  87 CALM        N/A
$$



USA.gov is the U.S. government's official web portal to all federal, state and local government web resources and services.